Dewpoint
-7 -7 -7 -7 -7 -7 -6 -6 -4 -6 -6 -8 -8 -7 -10 -12 -11 -10 -10 -10 -9 -10 -11 -13 -12 -11 -11 -13 -15 -16 -17 -18 -18 -18 -18 -18 -18 -19 -19 -18 -18 -19 -19 -18
-4 -6 -6 -5 -7 -7 -7 -7 -6 -6 -5 -6 -8 -9 -9 -9 -10 -10 -10 -10 -10 -10 -11 -11 -10 -9 -10 -10 -9 -14 -15 -16 -16 -15 -15 -16 -16 -16 -17 -17 -18 -18 -19 -18
-1 -5 -4 -2 -4 -5 -6 -7 -6 -5 -6 -6 -6 -6 -7 -8 -9 -10 -10 -10 -9 -10 -10 -9 -8 -7 -9 -7 -7 -10 -13 -14 -14 -12 -12 -13 -14 -14 -15 -16 -16 -17 -18 -19
-1 -2 0 -5 -7 -5 -5 -5 -7 -6 -7 -7 -7 -8 -9 -9 -8 -9 -10 -10 -10 -10 -9 -8 -6 -6 -6 -6 -7 -7 -9 -11 -13 -12 -10 -10 -13 -13 -13 -14 -15 -17 -18 -18
0 0 -3 -4 -6 -6 -4 -4 -5 -6 -7 -8 -8 -8 -7 -7 -8 -8 -9 -9 -9 -8 -6 -6 -5 -5 -6 -8 -9 -9 -9 -9 -9 -8 -8 -8 -11 -13 -13 -13 -14 -16 -17 -18
0 1 1 -5 -7 -8 -8 -3 -5 -5 -6 -6 -7 -5 -6 -8 -8 -7 -7 -7 -6 -5 -6 -7 -7 -8 -8 -8 -9 -10 -10 -9 -8 -9 -9 -9 -10 -12 -12 -12 -13 -15 -17 -17
0 1 -1 -6 -10 -7 -4 -5 -7 -6 -6 -6 -6 -7 -7 -7 -8 -7 -7 -7 -8 -8 -9 -9 -9 -10 -10 -10 -10 -9 -9 -8 -8 -8 -8 -9 -9 -10 -11 -12 -12 -15 -16 -17
-1 1 1 -8 -7 -4 -7 -9 -9 -8 -6 -5 -6 -6 -6 -7 -8 -8 -8 -8 -8 -8 -8 -9 -9 -9 -10 -10 -10 -11 -10 -9 -8 -8 -8 -8 -8 -9 -11 -11 -12 -15 -16 -17
-2 -2 -5 -7 -7 -7 -7 -7 -8 -7 -5 -6 -5 -5 -5 -5 -5 -6 -6 -7 -7 -7 -8 -8 -9 -9 -8 -9 -9 -9 -9 -9 -8 -8 -8 -8 -9 -9 -10 -11 -14 -15 -16 -16
-2 -3 -3 -2 -2 -3 -4 -3 -3 -3 -3 -3 -4 -5 -4 -4 -6 -7 -8 -8 -8 -8 -8 -8 -7 -7 -6 -7 -7 -8 -8 -8 -8 -8 -9 -9 -10 -11 -12 -13 -14 -15 -16 -17
-2 -5 -4 -5 -7 -8 -6 -4 -4 -2 -1 -1 -1 -2 -3 -4 -5 -5 -5 -5 -6 -7 -7 -7 -7 -7 -7 -8 -8 -8 -9 -9 -9 -9 -10 -10 -11 -12 -13 -13 -13 -14 -14 -15
-4 -14 -13 -10 -10 -11 -9 -8 -6 -6 -5 -3 -2 -2 -2 -3 -4 -4 -4 -5 -6 -6 -6 -6 -7 -8 -8 -9 -10 -11 -11 -11 -11 -11 -11 -11 -11 -12 -12 -12 -13 -13 -13 -14
-16 -17 -16 -15 -13 -13 -13 -12 -11 -8 -6 -6 -6 -6 -5 -5 -5 -5 -5 -6 -6 -6 -7 -7 -8 -10 -11 -12 -12 -12 -12 -12 -12 -12 -13 -13 -13 -13 -13 -14 -14 -14 -15 -15
-19 -18 -15 -15 -15 -15 -14 -13 -12 -12 -10 -9 -8 -8 -7 -7 -7 -7 -8 -9 -9 -9 -10 -11 -12 -12 -12 -12 -13 -13 -14 -14 -14 -14 -15 -15 -15 -15 -15 -15 -16 -16 -17 -17
-19 -20 -20 -18 -17 -16 -16 -15 -14 -13 -13 -12 -11 -11 -10 -9 -9 -9 -10 -11 -12 -12 -12 -13 -13 -13 -14 -14 -15 -15 -15 -15 -15 -15 -16 -16 -17 -19 -21 -23 -25 -29 -32 -33
-21 -20 -19 -19 -19 -18 -17 -17 -16 -16 -15 -14 -14 -13 -13 -12 -12 -12 -12 -13 -14 -14 -14 -15 -15 -15 -16 -16 -16 -17 -18 -19 -21 -23 -26 -30 -32 -33 -33 -33 -32 -31 -31 -30
-22 -21 -20 -20 -20 -20 -19 -18 -18 -17 -16 -16 -15 -15 -15 -15 -15 -15 -14 -15 -15 -15 -16 -16 -16 -17 -18 -19 -22 -27 -31 -34 -34 -33 -32 -31 -31 -30 -29 -28 -28 -28 -28 -28
-22 -21 -21 -21 -20 -20 -19 -19 -18 -18 -17 -17 -17 -16 -16 -16 -16 -16 -16 -16 -16 -17 -17 -18 -21 -25 -30 -33 -34 -33 -32 -31 -30 -29 -29 -28 -28 -28 -29 -29 -28 -28 -28 -27
-22 -21 -21 -21 -20 -20 -19 -19 -19 -19 -19 -18 -18 -18 -18 -18 -18 -17 -17 -18 -20 -23 -27 -31 -33 -34 -33 -32 -30 -29 -29 -29 -30 -31 -31 -30 -29 -27 -25 -24 -24 -24 -24 -25
-22 -22 -23 -22 -21 -22 -20 -19 -19 -19 -19 -19 -19 -19 -19 -18 -18 -20 -25 -29 -31 -33 -33 -33 -33 -32 -32 -31 -28 -29 -30 -29 -27 -25 -24 -23 -23 -23 -24 -24 -23 -24 -25 -26
-23 -22 -22 -22 -23 -23 -24 -21 -20 -20 -20 -19 -19 -19 -20 -23 -28 -30 -31 -32 -32 -32 -32 -32 -32 -32 -32 -31 -31 -25 -21 -21 -21 -22 -22 -23 -24 -25 -26 -26 -27 -29 -31 -31
-24 -23 -23 -22 -22 -24 -23 -26 -25 -24 -23 -24 -26 -27 -28 -29 -31 -31 -32 -32 -32 -32 -32 -32 -31 -31 -29 -22 -20 -20 -20 -20 -21 -23 -24 -25 -25 -27 -30 -31 -32 -31 -30 -29
-24 -24 -24 -23 -22 -22 -25 -23 -26 -27 -28 -28 -28 -29 -30 -30 -31 -32 -32 -32 -32 -32 -31 -31 -31 -27 -21 -20 -20 -20 -22 -23 -24 -26 -28 -30 -32 -32 -31 -30 -29 -28 -26 -24
-25 -25 -24 -24 -23 -22 -22 -25 -22 -25 -27 -27 -28 -29 -30 -31 -31 -32 -32 -32 -32 -27 -26 -29 -27 -22 -21 -20 -21 -23 -27 -31 -32 -32 -32 -31 -30 -29 -28 -25 -23 -21 -20 -19
-26 -25 -24 -24 -23 -23 -22 -23 -24 -23 -24 -26 -27 -28 -29 -30 -31 -31 -31 -31 -31 -31 -31 -31 -30 -22 -22 -26 -29 -30 -31 -32 -32 -31 -30 -28 -25 -21 -20 -19 -18 -17 -16 -15
-26 -25 -24 -24 -23 -23 -23 -22 -23 -24 -23 -24 -26 -27 -28 -30 -31 -31 -31 -31 -31 -31 -31 -29 -29 -29 -29 -29 -30 -32 -32 -31 -29 -26 -21 -19 -18 -17 -17 -16 -15 -15 -14 -14
-26 -24 -24 -24 -23 -23 -23 -23 -23 -23 -24 -24 -25 -26 -27 -29 -30 -31 -31 -31 -31 -30 -29 -28 -28 -28 -28 -29 -32 -31 -29 -24 -19 -18 -17 -17 -16 -16 -15 -14 -14 -14 -14 -13
Wind_Speed
4 5 4 6 6 14 19 22 10 27 20 21 15 11 23 19 16 19 20 21 25 29 29 29 26 25 29 32 37 41 43 42 40 39 38 36 34 33 30 29 26 25 23 20
4 4 5 7 15 16 21 16 25 28 29 5 11 26 27 35 39 34 29 30 27 28 30 27 28 29 32 29 33 39 41 43 40 41 41 42 40 39 37 34 31 30 28 25
20 6 5 9 28 21 19 18 21 19 38 5 8 20 31 34 41 43 43 37 30 33 31 34 32 29 34 33 33 36 40 41 42 40 42 44 46 44 42 39 36 35 32 30
5 4 8 14 1 12 25 27 22 26 32 18 18 34 44 44 35 39 43 44 44 41 37 34 30 26 25 29 30 33 36 38 40 41 41 43 46 49 46 44 41 39 35 33
7 10 13 21 7 6 8 20 22 25 27 32 31 31 50 33 37 41 41 39 37 37 37 33 30 29 27 26 28 30 33 35 37 39 39 42 44 47 47 45 44 42 38 36
6 8 14 29 7 12 6 16 15 26 24 25 13 7 21 17 16 23 29 31 30 25 22 21 22 24 27 28 29 29 29 31 31 30 31 35 38 42 45 44 44 42 39 36
17 13 8 8 7 12 7 8 9 26 33 17 10 24 9 4 10 15 15 13 11 12 13 14 15 16 17 18 20 20 22 23 26 26 27 29 31 35 37 38 41 40 38 36
12 12 18 14 4 11 3 3 4 7 19 20 35 21 27 12 10 9 10 11 12 13 14 14 14 14 15 16 16 18 19 21 24 25 25 26 27 29 31 34 38 37 36 34
11 7 1 13 7 6 9 9 6 8 8 4 7 18 20 17 15 16 16 16 15 16 15 15 16 16 17 17 16 17 18 19 20 21 22 23 24 26 29 32 34 34 32 31
1 1 2 10 9 11 10 7 7 8 7 5 5 5 7 7 7 6 7 8 8 9 10 11 11 12 13 13 14 15 15 15 15 15 16 17 18 20 23 26 28 28 28 28
3 3 3 11 17 17 15 12 9 11 16 18 19 15 14 14 14 12 12 12 13 12 12 12 11 11 11 10 11 11 11 11 11 11 11 13 15 17 19 21 23 25 26 28
0 2 2 10 15 21 17 17 16 17 16 15 18 20 19 19 19 18 16 15 14 13 13 12 12 11 10 9 8 8 9 9 11 11 12 13 14 16 18 20 21 23 23 23
4 14 18 22 16 11 19 16 13 14 15 17 16 14 15 15 15 16 17 17 16 15 14 13 12 10 9 8 8 9 9 10 11 11 13 14 14 16 18 20 22 23 23 24
9 14 7 6 12 21 19 18 18 14 13 14 15 15 15 14 15 14 14 14 13 13 12 12 12 11 10 9 9 9 10 10 10 11 13 12 13 16 19 21 23 24 24 27
4 12 14 16 16 17 17 16 15 15 15 12 11 13 11 14 15 13 12 10 11 11 11 11 10 9 9 9 9 9 9 10 10 11 13 14 17 19 21 24 26 29 28 28
18 16 8 10 14 15 16 14 14 13 12 12 11 10 11 12 12 12 13 12 10 10 9 8 8 8 9 8 9 9 10 11 13 14 15 17 19 20 20 22 24 26 27 26
20 18 19 18 17 16 15 14 14 13 12 11 10 9 9 10 10 10 11 11 11 10 7 7 7 8 9 10 11 12 12 12 14 15 13 15 16 18 20 23 26 28 30 27
15 16 16 17 19 19 17 13 12 11 9 9 9 10 10 10 9 9 10 10 10 9 8 9 9 11 11 11 10 10 10 11 12 13 14 16 19 21 24 26 28 31 32 32
14 17 16 16 16 16 15 13 11 10 8 8 8 9 10 10 10 10 9 8 8 8 8 10 12 12 11 10 9 10 11 13 14 14 16 18 20 22 25 29 32 35 37 38
17 17 17 17 15 15 14 12 11 10 9 8 8 9 9 9 8 9 9 9 9 8 9 10 11 10 10 10 9 11 12 13 14 16 19 24 27 29 32 34 35 38 41 43
20 19 19 18 17 15 14 12 11 10 9 9 10 9 9 9 11 11 11 10 9 9 11 11 10 11 10 11 9 9 14 18 21 23 27 30 32 33 35 38 40 41 41 42
22 22 21 20 19 18 15 14 13 12 12 11 12 12 13 12 13 12 12 10 10 11 11 11 13 12 11 10 16 20 23 26 29 31 32 34 37 39 40 40 41 42 44 45
22 23 23 21 21 20 18 17 16 15 15 14 14 15 15 13 14 13 11 11 11 11 11 12 12 11 12 16 22 25 27 29 31 33 35 36 36 37 39 41 43 45 47 49
23 23 22 20 21 21 20 16 18 18 18 17 17 16 15 15 15 14 12 13 12 12 13 13 11 11 13 23 25 26 27 29 30 31 32 33 36 38 41 43 47 49 52 54
23 22 20 19 20 21 20 17 17 19 20 19 18 16 16 16 16 12 13 12 12 12 11 11 13 14 18 20 23 25 27 27 28 30 33 36 39 42 46 49 51 50 49 46
21 20 18 17 19 19 18 17 17 16 18 20 19 17 16 15 15 15 14 13 13 13 12 12 14 16 20 21 24 25 26 28 30 32 35 40 43 44 43 41 40 40 42 44
18 15 17 18 16 16 16 16 17 15 16 18 17 14 14 14 13 14 13 12 12 12 12 13 15 18 21 23 23 24 27 31 34 38 39 37 35 34 34 36 39 42 45 48
Wind_Direction
224 140 138 188 180 190 206 221 209 258 241 240 232 225 236 249 255 238 227 229 230 226 217 217 221 233 238 241 243 241 240 242 246 249 248 249 250 251 252 254 258 261 263 265
259 133 180 241 231 203 213 223 239 252 264 169 221 241 251 253 259 258 251 242 233 221 216 216 242 250 239 244 250 247 244 243 245 251 253 251 250 250 250 251 253 256 258 260
262 134 134 274 241 217 220 219 219 234 246 140 226 237 245 246 248 251 258 251 237 219 228 259 269 264 251 258 253 249 247 244 243 248 252 252 249 249 249 250 251 252 253 254
252 116 221 249 236 207 216 234 216 247 259 243 244 256 259 254 245 253 255 258 257 255 263 279 276 268 257 245 242 242 244 246 246 248 252 251 248 246 247 247 248 249 250 252
219 213 277 295 237 151 166 256 218 224 247 251 251 266 274 260 258 253 254 255 259 261 263 261 253 252 246 241 240 240 242 245 247 250 252 252 249 247 246 244 244 246 247 249
185 222 227 255 184 185 110 262 162 209 232 236 197 234 262 253 265 259 254 256 259 257 255 250 245 245 245 247 248 250 253 256 255 253 251 250 248 247 246 244 243 242 244 246
223 237 259 254 170 140 157 254 210 207 225 218 191 223 253 211 243 238 228 228 232 238 245 245 238 231 231 236 243 248 250 250 252 253 255 254 251 248 247 242 239 238 241 245
224 233 243 156 128 197 265 342 309 287 244 236 237 242 242 245 213 226 233 225 230 235 241 241 242 242 242 243 248 254 258 260 258 255 251 249 247 245 241 235 235 236 240 243
194 207 38 193 82 48 10 359 352 5 16 348 255 245 251 269 261 257 260 260 255 248 243 240 239 241 246 250 251 252 252 253 254 255 255 253 250 244 236 230 230 234 239 245
150 133 97 81 52 20 1 348 330 321 329 349 354 332 320 314 303 273 254 257 255 246 239 239 241 245 248 253 256 257 257 252 248 247 247 244 238 231 229 231 233 238 244 248
266 71 321 86 22 355 329 299 278 268 268 264 260 274 292 295 288 265 247 241 241 245 249 251 253 253 251 249 249 250 246 245 245 242 240 237 235 233 235 238 243 248 251 255
180 95 320 292 329 329 333 326 315 296 273 248 246 244 245 252 250 247 244 233 232 239 247 250 250 250 246 244 243 247 242 234 232 232 231 232 235 239 244 250 253 258 264 267
315 298 296 300 315 303 325 324 317 299 281 278 277 274 253 247 242 242 239 239 236 237 239 241 243 243 241 241 245 246 244 241 240 241 241 238 235 243 250 250 250 251 253 254
286 312 310 314 311 316 313 314 307 303 290 268 265 266 259 256 245 241 236 238 236 224 215 217 223 228 233 236 236 236 236 233 235 237 239 246 252 254 258 260 260 259 260 267
298 320 304 300 308 311 312 312 306 297 293 285 267 260 248 235 229 225 224 220 216 212 206 206 211 219 224 223 226 225 232 239 238 246 253 258 260 263 267 270 273 275 275 271
319 321 307 305 307 309 314 309 301 297 294 285 273 261 248 237 225 210 203 201 202 200 193 193 198 205 214 221 231 238 246 255 260 261 265 267 270 272 275 276 278 279 280 283
338 336 325 321 324 320 314 302 296 292 287 277 261 248 241 227 214 204 192 190 195 195 192 197 212 230 240 243 253 258 258 259 259 263 265 267 272 278 280 280 283 285 286 289
328 315 309 307 311 311 313 309 292 287 269 254 245 227 215 212 218 210 199 192 194 195 200 228 243 253 258 258 258 261 262 262 265 272 281 286 286 285 287 288 288 289 292 291
335 328 320 308 308 307 307 303 299 289 271 245 229 222 211 210 212 214 215 217 226 226 232 243 247 250 251 255 257 264 272 278 282 288 287 287 287 287 288 289 291 291 292 293
329 332 327 316 305 302 302 295 289 278 264 248 234 228 225 222 226 235 240 243 244 242 237 232 236 244 254 262 261 277 287 289 292 289 289 291 291 293 293 293 293 293 294 294
328 325 324 321 310 297 293 290 281 273 261 250 246 242 243 245 245 248 248 243 236 231 232 237 246 247 254 263 267 276 290 291 291 293 294 295 295 293 292 291 292 293 294 294
324 321 320 317 314 303 289 281 276 269 262 257 254 252 253 254 255 251 246 240 237 233 241 245 251 260 266 293 298 293 289 291 295 297 297 297 296 296 296 296 295 296 296 296
317 315 312 312 309 304 292 275 269 264 260 260 262 261 259 254 252 252 249 244 238 243 245 249 258 270 279 278 274 277 284 290 293 293 293 293 293 293 294 295 296 296 296 296
312 312 306 302 303 300 298 289 271 263 262 261 262 261 258 256 252 253 246 244 242 240 250 263 270 275 279 276 280 286 290 292 293 295 295 295 296 298 298 299 299 299 299 299
308 306 303 302 302 303 297 295 278 261 257 258 260 260 258 254 253 246 249 245 244 249 256 263 269 276 272 282 289 292 296 299 300 301 302 303 304 303 302 302 302 304 304 304
309 305 305 304 305 305 301 297 289 273 261 256 255 256 257 255 252 249 249 251 251 258 265 271 280 285 289 295 301 306 307 305 305 304 303 302 304 304 304 306 308 310 311 311
303 301 299 304 301 302 298 295 290 280 264 260 257 251 254 252 248 247 248 249 256 261 272 282 289 293 299 304 306 307 307 307 307 307 308 310 311 313 315 316 315 314 311 308
Height
1519 1519 1524 1526 1529 1533 1531 1512 1515 1467 1485 1477 1483 1483 1479 1480 1482 1483 1485 1486 1488 1491 1493 1497 1501 1504 1506 1508 1511 1514 1517 1520 1523 1527 1531 1533 1536 1538 1541 1543 1546 1547 1548 1549
1515 1520 1518 1517 1509 1512 1510 1507 1501 1482 1473 1476 1476 1476 1476 1476 1476 1475 1478 1480 1483 1485 1488 1491 1494 1495 1497 1500 1502 1504 1507 1510 1516 1518 1521 1524 1527 1530 1533 1536 1538 1540 1541 1542
1488 1517 1519 1509 1468 1483 1485 1481 1478 1489 1437 1466 1469 1468 1464 1463 1465 1467 1469 1473 1475 1477 1480 1483 1485 1487 1488 1491 1493 1494 1497 1501 1505 1509 1511 1514 1518 1520 1523 1526 1529 1531 1533 1534
1500 1511 1504 1440 1455 1455 1460 1458 1468 1460 1443 1456 1456 1453 1447 1450 1455 1458 1461 1461 1464 1468 1470 1473 1475 1476 1477 1478 1481 1483 1486 1490 1494 1497 1499 1502 1505 1508 1512 1516 1519 1522 1524 1526
1489 1486 1466 1446 1447 1458 1459 1440 1446 1450 1443 1447 1450 1448 1425 1440 1442 1442 1446 1451 1456 1460 1461 1462 1463 1465 1466 1468 1471 1473 1476 1479 1482 1486 1489 1490 1493 1496 1501 1505 1509 1512 1516 1519
1479 1471 1464 1413 1439 1435 1443 1444 1431 1435 1433 1432 1445 1454 1417 1430 1431 1434 1438 1442 1446 1449 1451 1452 1454 1455 1457 1460 1462 1464 1467 1471 1473 1476 1477 1479 1483 1485 1489 1494 1498 1502 1504 1508
1459 1455 1447 1431 1434 1438 1453 1426 1417 1420 1421 1429 1435 1424 1424 1425 1427 1430 1433 1436 1439 1441 1443 1444 1446 1448 1449 1452 1454 1456 1458 1460 1463 1466 1468 1470 1473 1476 1480 1485 1488 1492 1495 1497
1448 1447 1441 1425 1434 1433 1423 1416 1418 1418 1418 1420 1418 1423 1423 1425 1428 1429 1430 1431 1433 1436 1438 1440 1442 1443 1444 1445 1446 1448 1449 1451 1454 1457 1459 1462 1465 1467 1470 1474 1478 1484 1486 1489
1424 1417 1416 1415 1420 1422 1422 1421 1419 1419 1418 1418 1420 1422 1423 1423 1424 1426 1427 1427 1428 1430 1432 1434 1437 1438 1440 1441 1441 1442 1443 1444 1447 1450 1452 1455 1458 1460 1463 1466 1470 1473 1477 1480
1414 1415 1416 1417 1420 1422 1423 1423 1421 1421 1420 1418 1421 1422 1422 1423 1423 1424 1425 1426 1426 1428 1429 1431 1433 1434 1436 1437 1437 1438 1439 1440 1441 1442 1446 1449 1452 1456 1460 1464 1468 1469 1471 1471
1411 1413 1414 1414 1418 1422 1421 1421 1419 1419 1419 1417 1417 1420 1421 1421 1421 1421 1420 1422 1424 1425 1425 1426 1428 1429 1430 1432 1433 1434 1435 1437 1438 1439 1441 1445 1449 1454 1458 1460 1463 1464 1464 1466
1412 1426 1424 1419 1419 1419 1418 1418 1417 1417 1415 1415 1415 1413 1413 1414 1416 1417 1418 1417 1418 1420 1422 1423 1424 1426 1427 1429 1430 1432 1434 1435 1435 1436 1438 1439 1443 1447 1451 1454 1457 1458 1460 1459
1426 1424 1422 1418 1418 1418 1416 1415 1414 1414 1411 1411 1412 1411 1410 1408 1410 1412 1415 1415 1413 1413 1415 1418 1421 1423 1424 1426 1428 1430 1431 1434 1436 1436 1438 1439 1434 1440 1445 1447 1447 1450 1452 1452
1425 1424 1420 1419 1417 1416 1412 1410 1410 1409 1409 1407 1407 1409 1408 1407 1409 1409 1409 1412 1413 1411 1411 1414 1417 1419 1422 1424 1425 1427 1430 1430 1429 1432 1435 1435 1433 1436 1440 1440 1442 1441 1444 1443
1427 1427 1423 1417 1416 1415 1413 1409 1408 1407 1407 1406 1404 1405 1402 1402 1403 1403 1406 1408 1410 1412 1409 1410 1414 1419 1422 1423 1426 1426 1427 1428 1427 1429 1431 1429 1431 1432 1432 1431 1433 1433 1432 1434
1421 1419 1416 1415 1414 1413 1410 1409 1407 1406 1404 1403 1402 1401 1401 1402 1402 1400 1401 1405 1410 1409 1407 1409 1414 1416 1419 1421 1423 1422 1424 1425 1427 1424 1423 1425 1427 1426 1425 1426 1425 1424 1423 1423
1413 1411 1410 1409 1409 1408 1408 1408 1406 1404 1402 1401 1400 1400 1401 1402 1402 1402 1400 1401 1405 1408 1405 1405 1410 1415 1417 1417 1419 1420 1420 1420 1421 1420 1420 1420 1420 1419 1418 1418 1416 1415 1414 1413
1418 1416 1414 1411 1409 1406 1405 1403 1401 1400 1398 1399 1399 1399 1398 1399 1402 1402 1402 1402 1403 1401 1398 1404 1407 1412 1414 1413 1413 1415 1417 1417 1417 1415 1414 1413 1413 1412 1411 1409 1408 1406 1402 1401
1416 1412 1409 1406 1404 1402 1400 1399 1397 1396 1395 1396 1396 1396 1396 1397 1399 1400 1400 1399 1399 1399 1399 1401 1404 1407 1411 1411 1411 1412 1412 1413 1413 1408 1408 1407 1406 1405 1404 1402 1399 1396 1393 1390
1410 1407 1404 1401 1400 1398 1396 1395 1394 1394 1394 1393 1393 1394 1394 1395 1396 1397 1397 1397 1397 1396 1397 1400 1401 1403 1405 1407 1408 1407 1407 1408 1405 1404 1402 1400 1398 1396 1393 1391 1388 1384 1381 1378
1406 1403 1400 1398 1396 1395 1393 1391 1391 1390 1390 1390 1391 1391 1392 1392 1393 1394 1394 1393 1393 1393 1396 1397 1399 1401 1402 1403 1404 1404 1403 1402 1400 1397 1394 1391 1388 1386 1383 1380 1376 1372 1368 1365
1401 1398 1396 1393 1391 1389 1388 1387 1386 1387 1387 1387 1388 1388 1388 1388 1389 1390 1390 1391 1390 1391 1392 1394 1396 1397 1397 1399 1398 1397 1396 1394 1390 1387 1384 1381 1378 1374 1370 1367 1363 1360 1355 1351
1396 1394 1391 1389 1386 1384 1383 1383 1383 1383 1383 1383 1383 1384 1384 1385 1385 1385 1386 1386 1387 1388 1389 1391 1392 1392 1395 1395 1393 1391 1388 1385 1381 1378 1375 1372 1368 1364 1360 1356 1351 1347 1342 1337
1391 1388 1385 1383 1381 1379 1377 1377 1376 1376 1376 1377 1378 1379 1379 1380 1380 1381 1382 1382 1383 1385 1385 1385 1386 1388 1390 1387 1385 1382 1379 1376 1372 1369 1365 1362 1357 1353 1348 1343 1337 1332 1326 1320
1384 1381 1379 1377 1375 1372 1371 1370 1369 1369 1370 1371 1373 1374 1375 1375 1376 1377 1377 1378 1379 1380 1380 1381 1381 1381 1381 1379 1377 1374 1370 1367 1363 1359 1355 1350 1345 1340 1335 1329 1322 1315 1309 1303
1377 1375 1373 1372 1370 1368 1366 1364 1363 1363 1364 1365 1366 1368 1369 1370 1370 1371 1372 1374 1375 1375 1375 1376 1376 1375 1373 1371 1368 1364 1361 1357 1354 1350 1346 1339 1333 1327 1321 1315 1308 1302 1296 1290
1372 1371 1368 1366 1364 1363 1361 1359 1358 1358 1359 1359 1361 1363 1363 1364 1366 1367 1368 1369 1369 1370 1371 1371 1371 1369 1366 1363 1360 1356 1352 1348 1344 1339 1332 1326 1321 1316 1310 1304 1298 1291 1284 1277